Location: Newark
(47.5500°N, 8.6167°E)
Time: 15:33:31
(UTC+00:00)

BEESAT 3 - Visible Passes

Search period start: 04 April 2020 00:00
Search period end: 14 April 2020 00:00
Orbit: 478 x 528 km, 64.9° (Epoch: 04 April)

Date Brightness Start Highest point End Pass type
(mag) Time Alt. Az. Time Alt. Az. Time Alt. Az.
04 Apr ? 00:35:27 14° N 00:35:27 14° N 00:36:14 10° NNE visible
05 Apr ? 00:15:53 13° N 00:15:53 13° N 00:16:30 10° NNE visible
05 Apr ? 23:56:16 12° NNE 23:56:16 12° NNE 23:56:47 10° NNE visible
06 Apr ? 23:36:37 12° NNE 23:36:37 12° NNE 23:37:03 10° NNE visible
07 Apr ? 23:16:52 12° NNE 23:16:52 12° NNE 23:17:19 10° NNE visible
08 Apr ? 04:08:43 10° N 04:11:07 15° NNE 04:13:30 10° ENE visible
08 Apr ? 22:57:03 13° NNE 22:57:03 13° NNE 22:57:35 10° NNE visible
09 Apr ? 03:49:00 10° N 03:51:19 15° NNE 03:53:36 10° ENE visible
09 Apr ? 22:37:05 14° NNE 22:37:05 14° NNE 22:37:49 10° NNE visible
10 Apr ? 03:29:17 10° N 03:31:30 14° NNE 03:33:41 10° ENE visible
10 Apr ? 22:16:55 17° N 22:16:55 17° N 22:18:05 10° NNE visible
11 Apr ? 03:09:35 10° N 03:11:41 14° NNE 03:13:45 10° ENE visible
11 Apr ? 21:56:20 23° N 21:56:20 23° N 21:58:20 10° NNE visible
12 Apr ? 02:49:52 10° N 02:51:52 13° NNE 02:53:49 10° ENE visible
12 Apr ? 20:00:10 16° ENE 20:00:10 16° ENE 20:01:06 10° NE visible
12 Apr ? 21:34:39 33° NW 21:34:54 34° NW 21:38:34 10° NNE visible
13 Apr ? 02:30:10 10° N 02:32:02 13° NNE 02:33:52 10° NE visible
13 Apr ? 04:06:22 10° NNW 04:10:16 55° NE 04:14:07 10° SE visible
13 Apr ? 19:34:21 10° S 19:37:47 29° ESE 19:41:17 10° ENE visible
13 Apr ? 21:11:25 10° WSW 21:15:06 35° NW 21:18:49 10° NNE visible
13 Apr ? 22:53:11 10° NNW 22:53:36 10° NNW 22:54:02 10° NNW visible
